Location: York
(31.8935°S, 116.7682°E)
Time: 19:44:35
(UTC+08:00)

DX 1 - Pass Details

Date: 06 August 2021
Orbit: 618 x 631 km, 98.4° (Epoch: 16 September)

Event Time Altitude Azimuth Distance (km) Brightness Sun altitude
Rises 19:10:09 0° 12° (NNE) 2,886 ? -19.3°
Reaches altitude 10° 19:12:19 10° 12° (NNE) 1,986 ? -19.8°
Maximum altitude 19:16:38 85° 283° (WNW) 633 ? -20.7°
Drops below altitude 10° 19:21:01 10° 194° (SSW) 2,010 ? -21.6°
Sets 19:23:14 0° 193° (SSW) 2,924 ? -22.1°
